Regional Weather Roundup
Issued by NWS

Home | Current Version | Previous Version | Graphics & Text | Print | Product List | Glossary Off
Versions: 1 2 3 4 5 6 7 8 9 10 11 12 13 14 15 16 17 18 19 20 21 22 23 24 25 26 27 28 29 30 31 32 33 34 35 36 37 38 39 40 41 42 43 44 45 46 47 48 49 50

731
ASUS43 KMPX 101101
RWRMN
WEATHER ROUNDUP FOR MINNESOTA
NATIONAL WEATHER SERVICE TWIN CITIES/CHANHASSEN MN
500 AM CST WED FEB 10 2016


NOTE: "FAIR" INDICATES FEW OR NO CLOUDS BELOW 12,000 FEET WITH NO
SIGNIFICANT WEATHER AND/OR OBSTRUCTIONS TO VISIBILITY. N/A MEANS
CURRENT SKY AND/OR WEATHER CONDITIONS ARE NOT AVAILABLE.

MNZ060>063-068>070-101200-
   Twin Cities Metro

CITY           SKY/WX    TMP DP  RH WIND       PRES   REMARKS
TWIN CITIES    MOCLDY     5  -4  66 N7        30.12S WCI  -7
ST PAUL        PTCLDY     4  -5  66 N8        30.14S WCI  -9
CRYSTAL        PTCLDY     4  -4  69 N5        30.11S WCI  -5
BLAINE         PTCLDY     5  -2  72 N6        30.11S WCI  -6
LAKEVILLE      CLOUDY     0  -2  92 CALM      30.10S
EDEN PRAIRIE   PTCLDY     4  -4  69 NW3       30.11S
SOUTH ST PAUL  CLOUDY     5  -4  66 N5        30.12S WCI  -4
LAKE ELMO      FAIR       1  -4  78 NW3       30.12R
$$
MNZ001>005-007-008-013>017-022>024-027-028-101200-
   Northwest Minnesota

CITY           SKY/WX    TMP DP  RH WIND       PRES   REMARKS
BEMIDJI          N/A     -8 -11  84 CALM      30.08S FOG
HALLOCK        CLOUDY     1  -6  71 SE6       30.14S WCI -10
ROSEAU         CLOUDY    -9 -17  70 E5        30.13F WCI -21
WARROAD        CLOUDY   -13 -17  84 E3        30.13F
THIEF RVR FALL CLOUDY     0  -6  78 E8        30.12S WCI -15
CROOKSTON      CLOUDY     3  -2  78 SE9       30.13F WCI -11
FOSSTON          N/A     -6 -11  77 E3        30.09F
DETROIT LAKES  CLOUDY     3   0  85 E3        30.08F
MOORHEAD       CLOUDY     5  -2  72 E3        30.11F
PARK RAPIDS    CLOUDY    -6 -11  79 CALM      30.05F
MAHNOMEN       CLOUDY     0  -4  82 CALM      30.09S
$$
MNZ006-009>011-018-025>026-101200-
   North Central Minnesota

CITY           SKY/WX    TMP DP  RH WIND       PRES   REMARKS
BAUDETTE       PTCLDY   -22 -27  77 W3        30.11F
FLAG ISLAND    PTCLDY   -17 -20  83 CALM      30.14F
INTL FALLS     PTCLDY   -13 -17  82 N3        30.13R FOG
WASKISH        CLOUDY   -17 -22  76 CALM      30.11S
LONGVILLE      CLOUDY    -6  -9  84 CALM      30.08F
GRAND RAPIDS   CLOUDY    -9 -15  77 N7        30.06R WCI -24
CRANE LAKE     CLOUDY   -24 -29  76 CALM      30.13S
ORR            PTCLDY   -20 -26  76 CALM      30.06R
COOK           PTCLDY   -20 -26  76 CALM      30.08R
WALKER         FAIR      -6 -10  82 CALM      30.08F
$$
MNZ012-019>021-037-101200-
   Northeast Minnesota

CITY           SKY/WX    TMP DP  RH WIND       PRES   REMARKS
DULUTH         CLOUDY    -9 -14  78 N6        30.03R WCI -22
ELY            CLOUDY    -9 -15  77 CALM      30.04R
HIBBING        PTCLDY   -19 -22  86 NW8       30.06S WCI -37
EVELETH        PTCLDY    -8 -13  77 CALM      30.07R
DULUTH HARBOR  CLOUDY     0  -8  71 NW10      30.12S WCI -17
TWO HARBORS    CLOUDY   -11 -18  70 CALM      30.04S
SILVER BAY     CLEAR    -11 -17  77 CALM      30.04R
GRAND MARAIS     N/A     -7 -17  62 N15G32    30.05F WCI -28
G MARAIS ARPRT CLOUDY   -15 -22  70 NW12      29.94S WCI -36
$$
MNZ029>031-032-039>041-046>048-054>057-064-101200-
   West Central Minnesota

CITY           SKY/WX    TMP DP  RH WIND       PRES   REMARKS
FERGUS FALLS   CLOUDY     5  -2  72 SE6       30.13F WCI  -6
WHEATON        LGT SNOW   9   7  92 E8        30.11F WCI  -4
MORRIS         LGT SNOW   7   1  78 E9        30.09S WCI  -7
ALEXANDRIA     CLOUDY     3  -5  69 E7        30.08R WCI  -9
ELBOW LAKE     CLOUDY     5  -2  74 SE3       30.10S
WADENA         CLOUDY     0  -6  78 CALM      30.08R
GLENWOOD       CLOUDY     3  -2  78 NE6       30.09R WCI  -8
APPLETON       FLURRIES   9   3  78 E5        30.12R WCI   0
BENSON         FLURRIES   7  -2  66 CALM      30.10R
ORTONVILLE     LGT SNOW   9   3  78 E7        30.08F WCI  -3
MADISON        LGT SNOW  10   5  79 E5        30.10S WCI   2
WILLMAR        FAIR       7   0  72 NE6       30.10S WCI  -3
$$
MNZ033>034-036-042>043-049>051-058-059-101200-
   Central Minnesota

CITY           SKY/WX    TMP DP  RH WIND       PRES   REMARKS
ST CLOUD       CLOUDY     2  -5  72 N5        30.10F WCI  -8
SAUK CENTRE    PTSUNNY    2  -5  74 NE3       30.09S
PAYNESVILLE    CLOUDY     4  -3  75 NE6       30.09S WCI  -7
AITKIN         CLOUDY    -8 -15  71 CALM      30.08S
PINE RIVER     CLOUDY    -6  -9  84 CALM      30.11S
BRAINERD       CLOUDY    -3  -8  79 N6        30.09F WCI -15
STAPLES        CLOUDY    -2  -8  78 CALM      30.08S
LONG PRAIRIE   CLOUDY     1  -4  78 NE3       30.07F
LITTLE FALLS   CLOUDY     0  -6  78 CALM      30.10F
LITCHFIELD     PTCLDY     5   0  78 NE5       30.09F WCI  -4
BUFFALO        PTCLDY     4  -4  68 CALM      30.12S
MAPLE LAKE     MOCLDY     5  -1  76 N3        30.11S
$$
MNZ037-044-045-052-053-101200-
   East Central Minnesota

CITY           SKY/WX    TMP DP  RH WIND       PRES   REMARKS
PRINCETON      PTCLDY     3  -4  72 N6        30.10F WCI  -8
MORA           CLOUDY    -2  -8  78 NW5       30.13R WCI -12
CAMBRIDGE      CLOUDY     1  -8  66 CALM      30.10S
RUSH CITY      PTCLDY    -2  -8  78 NW3       30.12R
MOOSE LAKE     CLOUDY    -9 -15  77 NW5       30.08S WCI -21
HINCKLEY       FAIR      -4  -8  84 NW3       30.10R
CLOQUET        CLOUDY    -9 -15  77 CALM      30.06R
MCGREGOR       CLOUDY    -6  -9  84 NW6       30.09R WCI -18
$$
MNZ071>073-080-081-089-090-097-098-101200-
   Southwest Minnesota

CITY           SKY/WX    TMP DP  RH WIND       PRES   REMARKS
MONTEVIDEO     CLOUDY     9   0  66 SE5       30.12R WCI   0
GRANITE FALLS  CLOUDY    10   3  72 E3        30.13R
CANBY          LGT SNOW  15  11  82 SE5       30.09S WCI   8
MARSHALL       FLURRIES  11   6  81 E7        30.09S WCI   0
REDWOOD FALLS  CLOUDY     8  -1  66 E3        30.11S
OLIVIA         CLOUDY    10   1  67 E5        30.10S WCI   2
PIPESTONE      LGT SNOW  16   3  57 SE7       30.02F WCI   6
WINDOM         CLOUDY     9   1  72 CALM      30.06F
WORTHINGTON    CLOUDY    12   7  79 E5        30.05F WCI   4
JACKSON        CLOUDY    12   3  67 E5        30.06F WCI   4
TRACY          LGT SNOW  12   7  81 E5        30.08S WCI   4
SLAYTON        CLOUDY    12   9  87 NE3       30.04F
$$
MNZ065>067-074>077-082>085-091>093-101200-
   South Central Minnesota

CITY           SKY/WX    TMP DP  RH WIND       PRES   REMARKS
MANKATO        CLOUDY     3  -2  78 N3        30.09S
NEW ULM        MOCLDY     5  -2  72 NE3       30.10F
ST JAMES       CLOUDY     9   1  72 CALM      30.11S
FAIRMONT       CLOUDY     9   0  66 N3        30.08S
GLENCOE        CLOUDY     6   0  75 CALM      30.11S
FARIBAULT        N/A      1  -6  71 CALM      30.10S
OWATONNA       PTCLDY     0  -6  78 CALM      30.09R
WASECA         PTCLDY     3   0  85 CALM      30.11R
ALBERT LEA     CLOUDY     1  -2  85 CALM      30.08R
$$
MNZ078>079-086>088-094>096-101200-
   Southeast Minnesota

CITY           SKY/WX    TMP DP  RH WIND       PRES   REMARKS
ROCHESTER      CLOUDY     0  -7  72 NW9       30.05S WCI -15
RED WING       CLOUDY     0  -8  71 NW5       30.11S WCI -10
STANTON        CLOUDY    -1  -6  77 CALM      30.10S
DODGE CENTER   CLOUDY     0  -6  78 NW7       30.05S WCI -13
WINONA         CLOUDY     5  -4  66 NW6       30.11R WCI  -6
AUSTIN         PTCLDY     0  -4  85 NW3       30.08R
PRESTON        CLOUDY    -1  -7  73 NW5       30.05S WCI -11
$$
ABBREVIATIONS USED IN REMARKS
   TC - TEMPERATURES IN CELSIUS
  WCI - WIND CHILL INDEX
   HX - HEAT INDEX
  VSB - VISIBILITY
$$




USA.gov is the U.S. government's official web portal to all federal, state and local government web resources and services.